Location: Équennes
(49.7375°N, 1.9622°E)
Time: 01:30:08
(UTC+00:00)

Cosmos 1606 Rocket - Pass Details

Date: 28 January 2023
Orbit: 602 x 629 km, 82.5° (Epoch: 31 March)

Event Time Altitude Azimuth Distance (km) Brightness Sun altitude
Rises 18:26:34 0° 354° (N) 2,872 7.0 -17.1°
Reaches altitude 10° 18:28:52 10° 0° (N) 1,962 6.0 -17.5°
Maximum altitude 18:33:04 48° 75° (ENE) 795 3.7 -18.2°
Enters shadow 18:35:46 20° 142° (SE) 1,399 5.1 -18.6°
